Disclaimer

Please do not use the information listed here in-flight or in-navigation, as they are not provided to us by the airports but are provided by volunteers, so they might be outdated.

Search


Regions


Airport information page

Radio informations:
INFO - 118.125 MHz

Airport informations:
Latitude: 27° 22' 46.52" N
Longitude: 052° 44' 15.60" E
Elevation: 27 feet - 8 meters
Operating hours: Remarks
Operating agency: Civil government, landing fees and diplomatic clearance may be required
Timezone: UTC+3:30
Fuel: N/A

Runway information:
13/31 - 13115 x 148 feet< - >3997 x 45 meters

Recent METARs:
OIBP 170830Z 15017KT 9999 FEW030CB SCT040 BKN100 26/15 Q1013 A2992
OIBP 170930Z 15016KT 6000 FEW030CB SCT040 BKN100 26/18 Q1011 A2988
OIBP 171000Z 15017KT 5000 SA FEW030CB SCT040 BKN100 25/19 Q1011 A2987

Airport on the map: